Weather History for Needles, CA

Change the Weather History Date:

Monday, January 28, 2013

  Actual Average Record
Temperature  
Mean Temperature 52 °F -  
Max Temperature 57 °F 66 °F 79 °F (1971)
Min Temperature 46 °F 42 °F 29 °F (1949)
Degree Days  
Heating Degree Days 14    
Growing Degree Days 2 (Base 50)    
Moisture  
Dew Point 26 °F    
Average Humidity 38    
Maximum Humidity 52    
Minimum Humidity 27    
Precipitation  
Precipitation 0.00 in - - ()
Sea Level Pressure  
Sea Level Pressure 29.96 in    
Wind  
Wind Speed 8 mph (NW)    
Max Wind Speed 16 mph    
Max Gust Speed -    
Visibility 10 miles    
Events      
Averages and records for this station are not official NWS values.
T = Trace of Precipitation, MM = Missing Value Source: NWS Daily Summary

Daily Weather History Graph

Daily Weather History Graph

Search for Another Location

Airport:

Trip Planner

Search our weather history database for the weather conditions in past years. The results will help you decide how hot, cold, wet, or windy it might be!

Date:

Astronomy

Jan. 28, 2013 Rise Set
Actual Time 6:39 AM PST 5:04 PM PST
Civil Twilight 6:12 AM PST 5:30 PM PST
Nautical Twilight 5:42 AM PST 6:01 PM PST
Astronomical Twilight 5:12 AM PST 6:30 PM PST
Moon 6:55 PM PST (1/28) 7:13 AM PST (1/28)
Length of Visible Light 11h 18m
Length of Day
10h 24m
Full, 97% of the Moon is Illuminated
Jan 28
Full
Feb 3
Last Quarter
Feb 9
New
Feb 17
First Quarter
Feb 25
Full

Hourly Weather History & Observations

Time (PST) Temp. Windchill Dew Point Humidity Pressure Visibility Wind Dir Wind Speed Gust Speed Precip Events Conditions
12:56 AM 55.0 °F - 30.0 °F 38% 29.85 in 10.0 mi SW 4.6 mph - N/A   Overcast
2:56 AM 50.0 °F - 33.1 °F 52% 29.86 in 10.0 mi WSW 16.1 mph - N/A   Mostly Cloudy
3:56 AM 48.9 °F - 30.0 °F 48% 29.86 in 10.0 mi West 9.2 mph - N/A   Scattered Clouds
4:56 AM 48.9 °F - 30.9 °F 50% 29.87 in 10.0 mi WSW 6.9 mph - N/A   Overcast
5:56 AM 50.0 °F - 30.9 °F 48% 29.89 in 10.0 mi NNW 3.5 mph - N/A   Mostly Cloudy
7:56 AM 52.0 °F - 30.0 °F 43% 29.93 in 10.0 mi WNW 5.8 mph - N/A   Scattered Clouds
8:56 AM 54.0 °F - 27.0 °F 35% 29.94 in 10.0 mi NW 9.2 mph - N/A   Clear
9:56 AM 55.0 °F - 26.1 °F 33% 29.96 in 10.0 mi North 11.5 mph - N/A   Mostly Cloudy
10:56 AM 57.9 °F - 25.0 °F 28% 29.96 in 10.0 mi North 8.1 mph - N/A   Scattered Clouds
11:56 AM 57.0 °F - 25.0 °F 29% 29.95 in 10.0 mi North 8.1 mph - N/A   Mostly Cloudy
12:56 PM 57.0 °F - 27.0 °F 32% 29.94 in 10.0 mi ENE 6.9 mph - N/A   Overcast
1:56 PM 57.9 °F - 25.0 °F 28% 29.95 in 10.0 mi North 8.1 mph - N/A   Mostly Cloudy
3:56 PM 55.9 °F - 21.9 °F 27% 29.97 in 10.0 mi NNE 10.4 mph - N/A   Clear
4:56 PM 54.0 °F - 24.1 °F 31% 29.98 in 10.0 mi North 6.9 mph - N/A   Clear
5:56 PM 51.1 °F - 27.0 °F 39% 30.00 in 10.0 mi NW 6.9 mph - N/A   Clear
6:56 PM 48.9 °F - 26.1 °F 41% 30.02 in 10.0 mi WNW 9.2 mph - N/A   Clear
7:56 PM 48.0 °F - 23.0 °F 37% 30.03 in 10.0 mi WNW 9.2 mph - N/A   Clear
8:56 PM 46.9 °F - 23.0 °F 39% 30.04 in 10.0 mi West 11.5 mph - N/A   Clear
9:56 PM 46.9 °F - 21.9 °F 37% 30.04 in 10.0 mi West 9.2 mph - N/A   Clear
10:56 PM 46.0 °F 41.4 °F 21.9 °F 39% 30.04 in 10.0 mi WNW 9.2 mph - N/A   Clear
11:56 PM 46.0 °F 41.4 °F 21.0 °F 37% 30.05 in 10.0 mi WNW 9.2 mph - N/A   Clear